Location: *
(28.2408°N, 53.4600°E)
Time: 20:50:59
(UTC+00:00)

GEOS 3 Rocket - Pass Details

Date: 22 September 2019
Orbit: 790 x 829 km, 115.0° (Epoch: 16 October)

Event Time Altitude Azimuth Distance (km) Brightness Sun altitude
Exits shadow 16:07:49 33° 39° (NE) 1,309 4.4 -23.6°
Drops below altitude 10° 16:11:46 10° 350° (N) 2,355 6.3 -24.5°
Sets 16:14:14 0° 341° (NNW) 3,289 7.2 -25.0°
